Location: Champion Emergency Medical Service
(32.1528°N, 94.8028°W)
Time: 06:49:51
(UTC+00:00)

Daily predictions for brighter satellites

Satellite Brightness Start Highest point End
(mag) Time Altitude Azimuth Time Altitude Azimuth Time Altitude Azimuth
Cosmos 841 Rocket 3.4 12:00:37 10° SSW 12:05:41 63° WNW 12:10:48 10° N
Cosmos 2278 Rocket 3.0 12:00:09 10° N 12:05:42 53° ENE 12:11:12 10° SE
Cosmos 2237 Rocket 2.2 12:04:03 10° SSW 12:09:36 59° WNW 12:15:13 10° NNE
Cosmos 1898 Rocket 3.4 12:05:46 10° NNW 12:10:57 78° WSW 12:16:06 10° S
PSLV R/B 3.9 12:07:04 10° NNE 12:11:03 86° E 12:15:06 10° SSW
FALCON 9 R/B 2.0 12:08:09 17° WSW 12:11:35 33° SSW 12:13:52 10° SE
Cosmos 2333 Rocket 3.9 12:13:27 13° NW 12:13:27 13° NW 12:15:01 10° NNW
ATLAS CENTAUR R/B 2.2 12:09:48 10° S 12:13:27 47° ESE 12:17:00 10° NE
CZ-2C R/B 4.3 12:09:00 10° SE 12:13:34 33° ENE 12:18:13 10° N
SMAP 4.3 12:09:21 10° NNE 12:13:49 46° E 12:18:16 10° S
H-2A R/B 3.7 12:10:00 10° NNE 12:14:22 49° E 12:18:43 10° S
Okean O Rocket 3.7 12:10:37 10° NE 12:14:29 31° E 12:18:19 10° SSE
deb Chang Zheng 4 4.4 12:11:08 10° NNW 12:14:40 26° WNW 12:18:10 10° SW
Cosmos 1570 Rocket 3.9 12:09:58 10° SSW 12:15:08 64° WNW 12:20:20 10° N
SJ-7 4.3 12:11:22 10° N 12:15:28 64° WNW 12:19:29 10° SSW
GPS 2-04 Rocket1 2.8 12:13:17 24° WNW 12:15:44 78° SSW 12:19:54 10° ESE
OAO 3 Copernicus 4.5 12:11:43 13° WSW 12:16:12 73° SSE 12:21:15 10° ENE
Cosmos 2219 Rocket 3.8 12:17:16 14° NW 12:17:16 14° NW 12:19:25 10° NNW
Cosmos 2034 Rocket 4.0 12:10:23 10° SSW 12:16:39 60° W 12:22:57 10° N
Spot 2 4.2 12:13:45 10° NNE 12:17:46 70° ESE 12:21:50 10° S
H-II Stage 2 4.1 12:18:21 10° SSW 12:20:13 13° S 12:23:14 10° SSE
Cosmos 1953 2.8 12:18:39 10° SSW 12:22:20 36° W 12:26:01 10° NNW
YAOGAN 6 2.8 12:21:11 10° N 12:24:45 48° WNW 12:28:18 10° SSW
USA 307 3.0 12:26:00 10° SW 12:30:13 80° SE 12:34:27 10° NE
PSLV R/B 4.2 12:26:27 10° S 12:30:22 46° W 12:34:20 10° NNW
Cosmos 1602 Rocket 4.0 12:26:06 10° N 12:30:33 66° E 12:34:59 10° SSE
COSMOS 2428 4.3 12:30:54 13° WNW 12:31:49 13° NW 12:34:32 10° NNW
GEOS 3 Rocket 3.7 12:28:14 10° SSE 12:33:31 68° WSW 12:38:53 10° NW
Nadezhda 4 Rocket 4.0 12:27:31 10° NNW 12:33:33 63° W 12:39:34 10° S
Cosmos 1634 Rocket 4.1 12:27:30 10° S 12:33:39 80° E 12:39:49 10° N
ERS-2 3.2 12:30:53 10° SSW 12:33:57 25° W 12:37:02 10° NW
Cosmos 2208 Rocket 4.2 12:28:44 10° SSW 12:34:02 53° WNW 12:39:22 10° N
Cosmos 1908 3.6 12:31:03 10° SSW 12:34:36 38° W 12:38:10 10° N
DMSP B5D1-3 4.5 12:30:39 10° S 12:35:44 75° WSW 12:40:51 10° NNW
MOS 1-B 4.3 12:31:21 10° NNE 12:37:08 81° WNW 12:42:54 10° SSW
CENTAUR R/B 3.1 12:32:42 10° SSW 12:38:01 56° ESE 12:44:13 10° NE
USA 308 2.8 12:34:40 10° SW 12:38:53 84° NW 12:43:07 10° NE
USA 305 2.8 12:35:39 10° SW 12:39:52 77° NW 12:44:07 10° NE
Cosmos 1814 Rocket 4.4 12:36:51 10° SW 12:41:38 38° WNW 12:46:25 10° N
Cosmos 1315 Rocket 3.9 12:38:33 10° S 12:42:20 49° E 12:46:07 10° NNE
COSMO-SKYMED 1 4.1 12:40:05 10° SW 12:42:59 17° W 12:45:54 10° NW
CORIOLIS 4.4 12:38:30 10° NNE 12:43:51 77° ESE 12:49:11 10° S
Cosmos 1937 Rocket 3.8 12:41:40 10° NNW 12:46:43 48° WSW 12:51:42 10° S
USA 238 DEB 3.6 12:42:01 10° SSW 12:48:31 87° WNW 12:55:16 10° NNE
USA 238 3.6 12:42:09 10° SSW 12:48:38 87° WNW 12:55:23 10° NNE
NOAA 11 4.4 12:43:11 10° NNE 12:48:40 80° ESE 12:54:05 10° S
Envisat 3.7 12:46:09 10° N 12:50:37 32° WNW 12:55:05 10° SW
Cosmos 372 Rocket 4.1 12:45:52 10° NNW 12:51:08 87° ENE 12:56:21 10° SSE
USA 306 2.9 12:47:28 10° SW 12:51:39 59° NW 12:55:52 10° NE
CZ-3A R/B 4.4 12:43:14 10° W 12:52:27 28° SSW 12:58:20 10° SSE
NOAA 6 4.4 12:47:41 10° N 12:52:36 44° WNW 12:57:29 10° SW
